Regional Weather Roundup
Issued by NWS Upton, NY

Home | Current Version | Previous Version | Text Only | Print | Product List | Glossary On
Versions: 1 2 3 4 5 6 7 8 9 10 11 12 13 14 15 16 17 18 19 20 21 22 23 24 25 26 27 28 29 30 31 32 33 34 35 36 37 38 39 40 41 42 43 44 45 46 47 48 49 50
000
ASUS41 KOKX 022318
RWROKX

REGIONAL WEATHER ROUNDUP
NATIONAL WEATHER SERVICE NEW YORK NY
700 PM EDT THU JUL 02 2015

NOTE: "FAIR" INDICATES FEW OR NO CLOUDS BELOW 12,000 FEET WITH NO
SIGNIFICANT WEATHER AND/OR OBSTRUCTIONS TO VISIBILITY.

NYZ071-072-176-178-NJZ106-104-030000-
NEW YORK CITY METRO AREA


CITY           SKY/WX    TMP DP  RH WIND       PRES   REMARKS
CENTRAL PARK   CLOUDY    74  60  61 S5        29.89S
LAGUARDIA APRT CLOUDY    75  59  57 S8        29.86S
KENNEDY INTL   CLOUDY    72  62  71 SW3       29.88S
NEWARK/LIBERTY CLOUDY    74  60  61 S6        29.86S
BRNX BOT. GARD   N/A     73  59  60 E2        29.87F
TETERBORO      CLOUDY    75  59  57 SW8       29.85S
$$

NYZ177-179-078>081-030000-
LONG ISLAND NEW YORK

CITY           SKY/WX    TMP DP  RH WIND       PRES   REMARKS
FARMINGDALE    CLOUDY    72  61  68 CALM      29.87S
ISLIP          CLOUDY    71  61  70 S3        29.85F
SHIRLEY        CLOUDY    70  60  70 CALM      29.87F
WESTHAMPTON    CLOUDY    68  60  75 CALM      29.88F
MONTAUK POINT    N/A     70  62  76 S5        29.88F
$$

NYZ052-065-067-030000-
HUDSON VALLEY

CITY           SKY/WX    TMP DP  RH WIND       PRES   REMARKS
WHITE PLAINS   CLOUDY    73  62  68 CALM      29.87S
NEWBURGH       MOSUNNY   75  61  60 SW6       29.88S
MONTGOMERY     CLOUDY    74  63  68 NW3       29.87R
POUGHKEEPSIE   CLOUDY    76  60  57 CALM      29.86R
ALBANY         PTSUNNY   73  50  44 NW10      29.89S
$$

NJZ001-105-106-008-010-013-015-019>022-104-030000-
NEW JERSEY

CITY           SKY/WX    TMP DP  RH WIND       PRES   REMARKS
NEWARK/LIBERTY CLOUDY    74  60  61 S6        29.86S
TETERBORO      CLOUDY    75  59  57 SW8       29.85S
CALDWELL       CLOUDY    76  59  55 CALM      29.87R
MORRISTOWN     CLOUDY    75  64  69 CALM      29.87S
SOMERVILLE     CLOUDY    73  65  75 S3        29.85R
SUSSEX         CLOUDY    74  63  68 CALM      29.88S
ANDOVER          N/A     70  64  81 CALM      29.89R
TRENTON        LGT RAIN  73  63  70 CALM      29.87R
MILLVILLE      CLOUDY    69  66  90 E5        29.87F FOG
ATLANTIC CITY  CLOUDY    68  64  88 CALM      29.88  FOG
WRIGHTSTOWN    CLOUDY    69  65  84 S2        29.85S
TOMS RIVER     CLOUDY    70  64  83 CALM      29.88S
BELMAR         CLOUDY    68  61  77 CALM      29.87S
$$

PAZ047>061-062-071-030000-
EASTERN PENNSYLVANIA

CITY           SKY/WX    TMP DP  RH WIND       PRES   REMARKS
PHILADELPHIA   LGT RAIN  74  64  71 S3        29.88R
ALLENTOWN      CLOUDY    75  65  70 CALM      29.87S
SCRANTON       PTSUNNY   74  56  53 NW3       29.90S
$$

CTZ002-004>006-009-010-012-RIZ004-006-007-MAZ004-011-015-030000-
SOUTHERN NEW ENGLAND
 IN CT

CITY           SKY/WX    TMP DP  RH WIND       PRES   REMARKS
BRADLEY INTL   CLOUDY    75  57  53 W5        29.86S
HARTFORD       CLOUDY    77  56  48 VRB7      29.86R
DANBURY        CLOUDY    70  61  73 CALM      29.89R
WTRBRY/OXFORD  SUNNY     72  59  64 CALM      29.90F
BRIDGEPORT     CLOUDY    74  60  61 SE5       29.86S
MERIDEN        CLOUDY    74  64  71 CALM      29.86S
NEW HAVEN      CLOUDY    73  61  65 S5        29.87R
CHESTER        FAIR      72  63  73 S6        29.88S
GROTON         CLOUDY    69  62  78 S5        29.86F
WILLIMANTIC    CLOUDY    75  64  68 CALM      29.87S

 IN RI

CITY           SKY/WX    TMP DP  RH WIND       PRES   REMARKS
PROVIDENCE     CLOUDY    77  58  51 W5        29.87S
BLOCK ISLAND   CLOUDY    70  63  78 SW7       29.88S
WESTERLY       CLOUDY    71  56  58 S6        29.88S

 IN MA

CITY           SKY/WX    TMP DP  RH WIND       PRES   REMARKS
BOSTON         CLOUDY    75  56  51 W7        29.86R
WORCESTER      CLOUDY    71  57  61 W5        29.90S
WESTFIELD      CLOUDY    75  56  51 NW3       29.87S
PROVINCETOWN   CLOUDY    70  12  11 SW8       29.87S
NANTUCKET      CLOUDY    68  64  87 S9        29.88F
$$

ANZ330-335-338-340-345-350-353-355-030000-
COASTAL MARINE OBSERVATIONS


STATION/POSITION TIME  SKY/WX   TEMP    WIND        PRES    VSBY  WAVE
                                AIR SEA DIR/SP/G                  HT/PER
                 (UTC)          (F)     (DEG/KT/KT) (MB)    (MI)  (FT/S)
NY HARB ENTRANCE 2250            68 70   CALM  /  2 1011.1          3/ 8
4S FIRE IS       2303               69                N/A           4/ 8
20S FIRE ISLAND  2250            68 68  100/  8/  8 1010.4          3/ 8
GREAT SOUTH BAY  NOT AVBL
23SW MTP         2250            67 66  150/  4/  6 1010.9          4/ 8
HUDSON CANYON    NOT AVBL
KINGS POINT      2200            75 69  190/  5/  5 1010.6
CENTRAL LI SOUND NOT AVBL
EASTERN LI SOUND 2200            69 65  200/  4/  6   N/A
ROBBINS REEF     2200            69     170/ 11/ 11 1010.2
$$


>>>>>>>>>>>>>>>>>>>>>>>>>>>> KEY <<<<<<<<<<<<<<<<<<<<<<<<<<<
>                                                          <
>     SKY/WX - SKY CONDITION/PRESENT WEATHER               <
>     TMP    - TEMPERATURE IN FAHRENHEIT                   <
>     DP     - DEWPOINT IN FAHRENHEIT                      <
>     RH     - RELATIVE HUMIDITY IN PERCENT                <
>     WIND   - DIRECTION AND SPEED IN MPH                  <
>     PRES   - MEAN SEA LEVEL PRESSURE IN INCHES OF HG     <
>     WCI    - WIND CHILL INDEX                            <
>     VSB    - VISIBILITY IN MILES                         <
>     HX     - HEAT INDEX                                  <
>     TC     - TEMPERATURE IN CELSIUS                      <
>     VRB    - VARIABLE WIND DIRECTION                     <
>                                                          <
>>>>>>>>>>>>>>>>>>>>>>>>>>>> KEY <<<<<<<<<<<<<<<<<<<<<<<<<<<





USA.gov is the U.S. government's official web portal to all federal, state and local government web resources and services.